DateTimeUTC,F1_A11,F1_S11,BsB_S11,BsG_S11,BsR_S11,BbsB_S11,BbsG_S11,BbsR_S11,BaB_A11,BaG_A11,BaR_A11,Tu_S11,T_S11,Uu_S11,U_S11,P_S11,T1_A11
2021-11-05T02:00:00Z,00000200,21000000,,,,,,,0000.13,0000.12,-000.03,18.7,25.7,,00.0,0648.9,31.1
2021-11-05T02:01:00Z,00000200,21000000,,,,,,,0000.21,0000.27,0000.42,18.7,25.7,,00.0,0648.9,31.1
2021-11-05T02:02:00Z,00000200,21000000,,,,,,,0000.07,0000.11,0000.06,18.7,25.7,,00.0,0648.9,31.1
2021-11-05T02:03:00Z,00000200,61000000,,,,,,,0000.26,-000.22,0000.03,18.7,25.7,,00.0,0648.9,31.1
2021-11-05T02:04:00Z,00000200,41000000,-000.37,-000.15,0000.18,0000.25,0000.39,0000.04,0000.47,0000.59,0000.06,18.7,25.5,,00.0,0649.8,31.1
2021-11-05T02:05:00Z,00000200,01000000,-000.05,0000.07,0000.10,0000.18,0000.23,-000.00,-000.65,0000.03,0000.10,18.8,25.5,,00.0,0649.9,31.1
2021-11-05T02:06:00Z,00000200,01000000,0000.54,-000.19,-000.25,0000.79,0000.16,0000.11,0000.53,-000.07,0000.23,18.9,25.5,,00.0,0649.8,31.1
2021-11-05T02:07:00Z,00000200,01000000,0000.36,-000.04,-000.01,0000.09,0000.01,0000.18,0000.29,0000.39,0000.06,19.0,25.5,,00.0,0649.9,31.2
2021-11-05T02:08:00Z,00000200,01000000,-000.88,0000.27,-000.05,0000.52,0000.09,0000.24,-000.22,-000.01,-000.03,19.1,25.6,,00.0,0649.9,31.1
2021-11-05T02:09:00Z,00000200,01000000,0000.74,0000.03,-000.35,0000.49,0000.14,0000.20,-000.35,0000.03,0000.14,19.2,25.6,,00.0,0649.9,31.2
2021-11-05T02:10:00Z,00000200,01000000,-000.12,-000.29,0000.01,0000.23,0000.04,-000.15,0000.18,-000.14,-000.08,19.2,25.6,,00.0,0649.9,31.2
2021-11-05T02:11:00Z,00000200,01000000,-000.07,0000.00,0000.23,0000.68,0000.17,0000.14,0000.08,-000.04,-000.12,19.2,25.7,,00.0,0649.9,31.2
2021-11-05T02:12:00Z,00000200,01000000,0000.63,0000.08,-000.10,0000.47,0000.34,0000.20,-000.29,0000.04,0000.19,19.2,25.6,,00.0,0649.9,31.2
2021-11-05T02:13:00Z,00000200,01000000,0000.17,0000.11,0000.16,0000.49,0000.16,-000.06,0000.10,-000.00,-000.24,19.1,25.6,,00.0,0649.9,31.1
2021-11-05T02:14:00Z,00000200,01000000,-000.78,0000.18,0000.21,-000.06,0000.01,0000.06,0000.37,-000.07,-000.05,19.0,25.5,,00.0,0649.9,31.1
2021-11-05T02:15:00Z,00000200,01000000,-000.26,0000.07,0000.05,0000.49,0000.08,0000.28,-000.20,-000.17,-000.08,18.9,25.5,,00.0,0649.9,31.1
2021-11-05T02:16:00Z,00000200,01000000,-000.24,0000.01,-000.12,0000.69,0000.30,0000.20,-000.04,0000.34,0000.20,18.9,25.5,,00.0,0649.9,31.1
2021-11-05T02:17:00Z,00000200,01000000,-000.56,0000.14,0000.22,0000.50,0000.36,0000.29,0000.18,0000.13,0000.08,18.8,25.5,,00.0,0649.9,31.1
2021-11-05T02:18:00Z,00000200,01000000,0000.08,-000.03,-000.15,0000.16,-000.14,0000.08,0000.11,-000.19,0000.11,18.8,25.4,,00.0,0649.9,31.1
2021-11-05T02:19:00Z,00000200,01000000,-000.04,0000.10,-000.27,0000.60,0000.14,0000.09,0000.41,0000.48,0000.26,18.8,25.4,,00.0,0649.9,31.1
2021-11-05T02:20:00Z,00000200,01000000,0000.47,0000.11,0000.03,0000.62,-000.01,-000.12,-000.26,-000.30,-000.31,18.9,25.5,,00.0,0649.9,31.1
2021-11-05T02:21:00Z,00000200,01000000,0000.34,0000.18,0000.06,0000.83,0000.10,0000.19,0000.07,0000.32,0000.37,19.0,25.5,,00.0,0649.9,31.1
2021-11-05T02:22:00Z,00000200,01000000,-000.67,-000.14,0000.03,0000.36,0000.04,0000.02,-000.11,-000.17,-000.10,19.1,25.5,,00.0,0649.9,31.2
2021-11-05T02:23:00Z,00000200,01000000,0000.05,-000.19,0000.19,0000.25,0000.24,0000.32,0000.37,0000.52,-000.02,19.1,25.6,,00.0,0649.9,31.2
2021-11-05T02:24:00Z,00000200,01000000,0000.13,0000.00,-000.06,0000.04,0000.36,0000.23,-000.14,-000.39,-000.00,19.1,25.6,,00.0,0649.9,31.1
2021-11-05T02:25:00Z,00000200,01000000,0000.85,-000.24,-000.13,0000.11,0000.20,-000.05,-000.15,-000.04,0000.24,19.1,25.6,,00.0,0649.9,31.1
2021-11-05T02:26:00Z,00000200,01000000,0000.34,0000.19,0000.18,0000.22,0000.13,-000.05,-000.15,-000.19,-000.46,19.0,25.5,,00.0,0649.9,31.1
2021-11-05T02:27:00Z,00000200,01000000,0000.72,0000.14,-000.22,0000.35,0000.07,0000.23,0000.29,-000.05,0000.10,18.9,25.5,,00.0,0649.9,31.1
2021-11-05T02:28:00Z,00000200,01000000,-000.76,-000.03,-000.16,0000.19,0000.10,0000.16,-000.03,0000.01,-000.03,18.9,25.4,,00.0,0649.9,31.1
2021-11-05T02:29:00Z,00000200,01000000,-000.37,0000.03,-000.01,0000.21,-000.06,0000.21,-000.22,-000.16,-000.12,18.8,25.4,,00.0,0649.9,31.1
2021-11-05T02:30:00Z,00000200,01000000,0000.22,-000.36,0000.03,0000.83,0000.18,0000.25,-000.10,-000.24,0000.04,18.8,25.4,,00.0,0649.9,31.1
2021-11-05T02:31:00Z,00000200,01000000,0000.86,-000.35,-000.22,0000.35,0000.02,0000.08,-000.18,0000.13,-000.43,18.7,25.3,,00.0,0649.9,31.1
2021-11-05T02:32:00Z,00000200,01000000,0000.18,-000.22,0000.25,0000.31,0000.24,0000.24,0000.23,0000.15,0000.33,18.6,25.3,,00.0,0649.9,31.1
2021-11-05T02:33:00Z,00000200,01000000,0000.43,0000.08,-000.21,0000.71,0000.28,0000.04,-000.11,-000.21,0000.17,18.6,25.3,,00.0,0649.9,31.1
2021-11-05T02:34:00Z,00000200,01000000,-000.37,0000.15,-000.08,0000.41,0000.03,0000.14,0000.46,0000.21,-000.18,18.7,25.3,,00.0,0650.0,31.1
2021-11-05T02:35:00Z,00000200,01000000,0000.33,0000.02,-000.12,0000.17,0000.39,0000.10,0000.21,0000.09,0000.26,18.7,25.3,,00.0,0650.0,31.1
2021-11-05T02:36:00Z,00000200,01000000,0000.04,-000.17,-000.13,-000.56,0000.04,0000.29,-000.23,0000.29,0000.06,18.8,25.3,,00.0,0650.0,31.1
2021-11-05T02:37:00Z,00000200,01000000,-000.53,0000.23,0000.10,0000.07,-000.03,0000.20,-000.05,-000.02,0000.08,18.9,25.4,,00.0,0649.9,31.1
2021-11-05T02:38:00Z,00000200,01000000,0000.06,0000.21,-000.33,0000.36,0000.06,0000.06,0000.08,0000.21,-000.03,19.0,25.4,,00.0,0650.0,31.2
2021-11-05T02:39:00Z,00000200,01000000,-000.56,0000.18,-000.04,0000.83,-000.20,0000.19,0000.18,0000.09,0000.14,19.1,25.5,,00.0,0650.0,31.1
2021-11-05T02:40:00Z,00000200,01000000,0000.08,0000.06,0000.20,0000.03,0000.52,0000.24,0000.03,-000.13,0000.31,19.1,25.5,,00.0,0650.0,31.2
2021-11-05T02:41:00Z,00000200,01000000,0000.40,-000.31,-000.06,0000.42,0000.30,0000.34,0000.06,0000.17,-000.17,19.2,25.5,,00.0,0650.0,31.2
2021-11-05T02:42:00Z,00000200,01000000,-000.29,0000.25,0000.06,0000.06,-000.01,0000.32,-000.39,-000.18,-000.26,19.3,25.6,,00.0,0650.0,31.2
2021-11-05T02:43:00Z,00000200,01000000,0000.13,-000.29,-000.07,-000.30,0000.02,0000.15,0000.23,-000.17,-000.09,19.2,25.6,,00.0,0650.0,31.2
2021-11-05T02:44:00Z,00000200,01000000,-000.11,0000.07,0000.21,0000.74,0000.12,0000.27,-000.34,0000.32,0000.10,19.2,25.6,,00.0,0650.0,31.2
2021-11-05T02:45:00Z,00000200,01000000,-000.25,0000.13,0000.23,0000.36,0000.08,0000.11,0000.27,-000.49,-000.30,19.1,25.5,,00.0,0650.0,31.1
2021-11-05T02:46:00Z,00000200,01000000,-000.17,0000.24,0000.10,-000.66,0000.13,0000.03,-000.13,0000.01,0000.06,19.0,25.5,,00.0,0650.0,31.1
2021-11-05T02:47:00Z,00000200,01000000,0000.21,0000.01,0000.13,0000.41,0000.25,0000.28,0000.06,0000.05,-000.08,19.0,25.5,,00.0,0650.0,31.1
2021-11-05T02:48:00Z,00000200,01000000,0000.51,-000.07,-000.04,0000.63,0000.11,0000.29,-000.34,-000.48,-000.07,19.0,25.4,,00.0,0650.0,31.1
2021-11-05T02:49:00Z,00000200,01000000,-000.39,-000.15,0000.10,0000.82,0000.16,0000.08,0000.24,0000.13,0000.26,19.0,25.4,,00.0,0650.0,31.1
2021-11-05T02:50:00Z,00000200,01000000,0000.05,0000.03,-000.07,0000.33,-000.12,-000.02,-000.29,0000.09,-000.09,19.0,25.5,,00.0,0650.0,31.1
2021-11-05T02:51:00Z,00000200,01000000,-000.90,0000.20,-000.02,0000.36,0000.08,-000.01,-000.06,0000.05,-000.18,19.1,25.5,,00.0,0650.0,31.1
2021-11-05T02:52:00Z,00000200,01000000,-000.21,0000.17,0000.06,0000.06,0000.19,0000.12,0000.16,-000.11,0000.23,19.2,25.6,,00.0,0650.0,31.1
2021-11-05T02:53:00Z,00000200,01000000,-000.71,-000.15,-000.12,0000.42,0000.02,0000.29,-000.01,0000.06,-000.02,19.3,25.6,,00.0,0650.0,31.2
2021-11-05T02:54:00Z,00000200,01000000,0000.22,-000.08,0000.01,0000.52,0000.07,0000.37,-000.01,0000.18,-000.14,19.3,25.6,,00.0,0650.0,31.2
2021-11-05T02:55:00Z,00000200,01000000,0000.35,0000.08,-000.18,0000.33,0000.20,-000.08,-000.42,-000.52,0000.02,19.4,25.7,,00.0,0650.0,31.2
2021-11-05T02:56:00Z,00000200,01000000,-000.11,0000.24,-000.05,-000.35,0000.30,-000.10,0000.14,0000.12,-000.02,19.3,25.6,,00.0,0650.0,31.2
2021-11-05T02:57:00Z,00000200,41000000,,,,,,,0000.13,0000.26,0000.10,19.3,25.7,,00.0,0650.0,31.1
2021-11-05T02:58:00Z,00000200,61000000,,,,,,,-000.37,-000.31,-000.20,18.9,25.7,,00.0,0649.1,31.1
2021-11-05T02:59:00Z,00000200,21000000,,,,,,,-000.05,0000.08,-000.38,18.8,25.8,,00.0,0649.1,31.1
